Cape Girardeau, MO

10:10 PM CDT on September 19, 2019 (GMT -0500)
Cape Girardeau Regional

Weather History for KCGI - August, 2019

Change the Weather History Date:

Monday, August 19, 2019

  Actual Average Record
Temperature  
Mean Temperature 81 °F 77 °F  
Max Temperature 93 °F 89 °F 98 °F (1962)
Min Temperature 69 °F 65 °F 52 °F (2008)
Degree Days  
Heating Degree Days 0 0  
Month to date heating degree days 0 0  
Since 1 June heating degree days 0 4  
Since 1 July heating degree days 0 0  
Cooling Degree Days 16 12  
Month to date cooling degree days 274 243  
Year to date cooling degree days 1242 1129  
Since 1 June cooling degree days 1023 977  
Growing Degree Days 32 (Base 50)    
Moisture  
Dew Point 72 °F    
Average Humidity 71    
Maximum Humidity 90    
Minimum Humidity 52    
Precipitation  
Precipitation 0.00 in 0.10 in 1.36 in (2016)
Month to date precipitation 0.57 1.81  
Year to date precipitation 43.62 29.84  
Sea Level Pressure  
Sea Level Pressure 29.99 in    
Wind  
Wind Speed 4 mph (South)    
Max Wind Speed 10 mph    
Max Gust Speed 14 mph    
Visibility 10 miles    
Events      
T = Trace of Precipitation, MM = Missing Value Source: NWS Daily Summary

Daily Weather History Graph

Daily Weather History Graph

Search for Another Location

Airport or City:

Astronomy

Aug. 19, 2019 Rise Set
Actual Time 6:17 AM CDT 7:45 PM CDT
Civil Twilight 5:50 AM CDT 8:12 PM CDT
Nautical Twilight 5:17 AM CDT 8:45 PM CDT
Astronomical Twilight 4:42 AM CDT 9:20 PM CDT
Moon 10:11 PM CDT (8/19) 9:54 AM CDT (8/19)
Length of Visible Light 14h 22m
Length of Day
13h 27m
Waning Gibbous, 85% of the Moon is Illuminated
Aug 19
Waning Gibbous
Aug 23
Last Quarter
Aug 30
New
Sep 5
First Quarter
Sep 13
Full

Hourly Weather History & Observations

Time (CDT) Temp. Heat Index Dew Point Humidity Pressure Visibility Wind Dir Wind Speed Gust Speed Precip Events Conditions
12:53 AM 72.0 °F - 68.0 °F 87% 29.95 in 10.0 mi WNW 3.5 mph - N/A   Clear
1:53 AM 71.1 °F - 68.0 °F 90% 29.94 in 10.0 mi West 4.6 mph - N/A   Clear
2:53 AM 71.1 °F - 66.9 °F 87% 29.94 in 10.0 mi Calm Calm - N/A   Clear
3:53 AM 70.0 °F - 66.9 °F 90% 29.95 in 10.0 mi SSE 3.5 mph - N/A   Clear
4:53 AM 70.0 °F - 66.9 °F 90% 29.97 in 10.0 mi SSE 4.6 mph - N/A   Clear
5:53 AM 71.1 °F - 68.0 °F 90% 29.98 in 10.0 mi SSE 4.6 mph - N/A   Clear
6:53 AM 71.1 °F - 68.0 °F 90% 30.00 in 10.0 mi Calm Calm - N/A   Clear
7:53 AM 73.9 °F - 70.0 °F 87% 30.02 in 10.0 mi South 5.8 mph - N/A   Clear
8:53 AM 78.1 °F - 70.0 °F 76% 30.02 in 10.0 mi South 4.6 mph - N/A   Clear
9:53 AM 81.0 °F 85.2 °F 72.0 °F 74% 30.03 in 10.0 mi SSW 4.6 mph - N/A   Clear
10:53 AM 84.9 °F 91.4 °F 73.0 °F 67% 30.03 in 10.0 mi Variable 3.5 mph - N/A   Clear
11:53 AM 88.0 °F 97.5 °F 75.0 °F 65% 30.02 in 10.0 mi Variable 3.5 mph - N/A   Clear
12:53 PM 89.1 °F 99.1 °F 75.0 °F 63% 30.01 in 10.0 mi ESE 6.9 mph - N/A   Partly Cloudy
1:53 PM 90.0 °F 100.2 °F 75.0 °F 61% 30.00 in 10.0 mi SE 5.8 mph - N/A   Partly Cloudy
2:53 PM 93.0 °F 103.2 °F 73.9 °F 54% 29.97 in 10.0 mi South 8.1 mph - N/A   Partly Cloudy
3:53 PM 93.0 °F 104.6 °F 75.0 °F 56% 29.96 in 10.0 mi Variable 5.8 mph - N/A   Clear
4:53 PM 88.0 °F 101.3 °F 78.1 °F 72% 29.96 in 10.0 mi SW 5.8 mph - N/A   Clear
5:53 PM 86.0 °F 98.3 °F 78.1 °F 77% 29.96 in 10.0 mi SW 4.6 mph - N/A   Clear
7:53 PM 86.0 °F 96.0 °F 75.9 °F 72% 29.97 in 10.0 mi Calm Calm - N/A   Clear
8:53 PM 82.0 °F 89.4 °F 75.9 °F 82% 29.99 in 10.0 mi South 3.5 mph - N/A   Clear
9:53 PM 80.1 °F 85.1 °F 75.0 °F 85% 30.01 in 10.0 mi ESE 3.5 mph - N/A   Clear
10:53 PM 79.0 °F - 73.9 °F 84% 30.00 in 10.0 mi SW 5.8 mph - N/A   Clear
11:53 PM 78.1 °F - 73.0 °F 84% 30.00 in 10.0 mi Calm Calm - N/A   Clear